Change the Weather History Date:

Saturday, March 2, 2013

  Actual Average Record
Temperature  
Mean Temperature 50 °F 32 °F  
Max Temperature 57 °F 44 °F 66 °F (2009)
Min Temperature 42 °F 21 °F -20 °F (1978)
Degree Days  
Heating Degree Days 16 33  
Month to date heating degree days 66  
Since 1 July heating degree days 5414  
Cooling Degree Days 0 0  
Month to date cooling degree days 0  
Year to date cooling degree days 0  
Moisture  
Dew Point 26 °F    
Average Humidity 43    
Maximum Humidity 51    
Minimum Humidity 32    
Precipitation  
Precipitation 0.00 in 0.02 in 0.51 in (1974)
Month to date precipitation 0.04  
Year to date precipitation 1.03  
Sea Level Pressure  
Sea Level Pressure 30.08 in    
Wind  
Wind Speed 30 mph (SW)    
Max Wind Speed 39 mph    
Max Gust Speed 53 mph    
Visibility 10 miles    
Events      
T = Trace of Precipitation, MM = Missing Value Source: NWS Daily Summary

Daily Weather History Graph

Daily Weather History Graph

Search for Another Location

Airport or City:

Trip Planner

Search our weather history database for the weather conditions in past years. The results will help you decide how hot, cold, wet, or windy it might be!

Date:

Astronomy

Mar. 02, 2013 Rise Set
Actual Time 6:57 AM MST 6:10 PM MST
Civil Twilight 6:28 AM MST 6:40 PM MST
Nautical Twilight 5:53 AM MST 7:14 PM MST
Astronomical Twilight 5:19 AM MST 7:49 PM MST
Moon No Moon Rise 9:10 AM MST (3/2)
Length of Visible Light 12h 12m
Length of Day
11h 12m
Waning Gibbous, 73% of the Moon is Illuminated
Mar 2
Waning Gibbous
Mar 4
Last Quarter
Mar 11
New
Mar 19
First Quarter
Mar 27
Full

Hourly Weather History & Observations

Time (MST) Temp. Windchill Dew Point Humidity Pressure Visibility Wind Dir Wind Speed Gust Speed Precip Events Conditions
12:53 AM 43.0 °F 34.2 °F 25.0 °F 49% 30.26 in 10.0 mi SW 20.7 mph 32.2 mph N/A   Clear
1:53 AM 42.1 °F 31.3 °F 25.0 °F 51% 30.28 in 10.0 mi SW 29.9 mph 39.1 mph N/A   Clear
2:53 AM 42.1 °F 31.5 °F 25.0 °F 51% 30.26 in 10.0 mi SW 28.8 mph 39.1 mph N/A   Clear
3:53 AM 43.0 °F 31.5 °F 25.0 °F 49% 30.21 in 10.0 mi SW 36.8 mph 48.3 mph N/A   Clear
5:53 AM 43.0 °F 33.8 °F 25.0 °F 49% 30.24 in 10.0 mi WSW 23.0 mph 36.8 mph N/A   Clear
6:53 AM 43.0 °F 31.8 °F 25.0 °F 49% 30.21 in 10.0 mi SW 34.5 mph 48.3 mph N/A   Clear
7:53 AM 44.1 °F 32.7 °F 25.0 °F 47% 30.19 in 10.0 mi SW 39.1 mph 52.9 mph N/A   Clear
8:53 AM 45.0 °F 34.1 °F 25.0 °F 46% 30.18 in 10.0 mi SSW 38.0 mph 49.5 mph N/A   Clear
9:53 AM 46.9 °F - 25.0 °F 42% 30.17 in 10.0 mi SSW 35.7 mph 49.5 mph N/A   Clear
10:53 AM 48.0 °F - 26.1 °F 42% 30.15 in 10.0 mi SW 36.8 mph 46.0 mph N/A   Clear
11:53 AM 50.0 °F - 27.0 °F 41% 30.12 in 10.0 mi SW 32.2 mph 51.8 mph N/A   Clear
12:53 PM 54.0 °F - 27.0 °F 35% 30.07 in 10.0 mi SW 36.8 mph 46.0 mph N/A   Clear
1:53 PM 57.0 °F - 27.0 °F 32% 30.03 in 10.0 mi SSW 34.5 mph 46.0 mph N/A   Clear
2:53 PM 55.0 °F - 27.0 °F 34% 30.03 in 10.0 mi SW 34.5 mph 44.9 mph N/A   Clear
3:53 PM 54.0 °F - 28.0 °F 37% 30.01 in 10.0 mi SW 26.5 mph 42.6 mph N/A   Overcast
4:53 PM 52.0 °F - 28.0 °F 40% 29.99 in 10.0 mi SSW 28.8 mph 41.4 mph N/A   Scattered Clouds
5:53 PM 50.0 °F - 27.0 °F 41% 29.96 in 10.0 mi SSW 29.9 mph 38.0 mph N/A   Clear
6:53 PM 48.0 °F - 26.1 °F 42% 29.96 in 10.0 mi SSW 33.4 mph 44.9 mph N/A   Clear
7:53 PM 46.9 °F - 26.1 °F 44% 29.95 in 10.0 mi SW 26.5 mph 41.4 mph N/A   Clear
8:53 PM 46.9 °F - 26.1 °F 44% 29.92 in 10.0 mi SSW 23.0 mph 43.7 mph N/A   Clear
9:53 PM 46.9 °F - 26.1 °F 44% 29.89 in 10.0 mi SSW 31.1 mph 39.1 mph N/A   Clear
10:53 PM 46.9 °F - 26.1 °F 44% 29.85 in 10.0 mi SSW 31.1 mph 43.7 mph N/A   Clear
11:53 PM 46.9 °F - 26.1 °F 44% 29.81 in 10.0 mi SW 31.1 mph 42.6 mph N/A   Mostly Cloudy